| time (UTC) | temp C | wind direction | speed KPH | gust KPH | rain 1hr cm | rain 24hr cm | rain mn cm | humidity % | barometer mb |
| 20260906172141 | 37 | 31 | 4.8 | 12.9 | 0.00 | 0.00 | 0.00 | 41 | 987.1 |
| 20260906171640 | 36 | 37 | 4.8 | 8.0 | 0.00 | 0.00 | 0.00 | 43 | 987.4 |
| 20260906171136 | 37 | 88 | 3.2 | 8.0 | 0.00 | 0.00 | 0.00 | 42 | 987.7 |
| 20260906170632 | 37 | 28 | 3.2 | 20.9 | 0.00 | 0.00 | 0.00 | 43 | 987.5 |
| 20260906170131 | 37 | 81 | 0.0 | 8.0 | 0.00 | 0.00 | 0.00 | 46 | 987.6 |
| 20260906165628 | 37 | 112 | 6.4 | 9.7 | 0.00 | 0.00 | 0.00 | 43 | 987.6 |
| 20260906165123 | 37 | 213 | 1.6 | 9.7 | 0.00 | 0.00 | 0.00 | 44 | 987.7 |
| 20260906164622 | 36 | 263 | 0.0 | 6.4 | 0.00 | 0.00 | 0.00 | 47 | 987.8 |
| 20260906164117 | 36 | 170 | 1.6 | 6.4 | 0.00 | 0.00 | 0.00 | 45 | 987.9 |
| 20260906163613 | 36 | 7 | 4.8 | 8.0 | 0.00 | 0.00 | 0.00 | 45 | 987.8 |
| 20260906163108 | 36 | 117 | 3.2 | 12.9 | 0.00 | 0.00 | 0.00 | 44 | 987.9 |
| 20260906162605 | 36 | 43 | 6.4 | 12.9 | 0.00 | 0.00 | 0.00 | 47 | 987.9 |
| 20260906162100 | 36 | 155 | 0.0 | 8.0 | 0.00 | 0.00 | 0.00 | 45 | 987.9 |
| 20260906161555 | 36 | 196 | 0.0 | 11.3 | 0.00 | 0.00 | 0.00 | 46 | 987.9 |
| 20260906161054 | 35 | 126 | 0.0 | 11.3 | 0.00 | 0.00 | 0.00 | 47 | 988.0 |
| 20260906160553 | 36 | 133 | 6.4 | 8.0 | 0.00 | 0.00 | 0.00 | 45 | 988.1 |
| 20260906160052 | 35 | 317 | 3.2 | 9.7 | 0.00 | 0.00 | 0.00 | 52 | 988.0 |
| 20260906155549 | 35 | 125 | 4.8 | 4.8 | 0.00 | 0.00 | 0.00 | 49 | 987.9 |
| 20260906155046 | 35 | 3 | 3.2 | 8.0 | 0.00 | 0.00 | 0.00 | 50 | 987.7 |
| 20260906154541 | 33 | 352 | 1.6 | 6.4 | 0.00 | 0.00 | 0.00 | 51 | 987.9 |
| 20260906154040 | 35 | 341 | 3.2 | 4.8 | 0.00 | 0.00 | 0.00 | 48 | 987.9 |
| 20260906153538 | 34 | 113 | 3.2 | 4.8 | 0.00 | 0.00 | 0.00 | 50 | 987.8 |
| 20260906153034 | 34 | 109 | 0.0 | 6.4 | 0.00 | 0.00 | 0.00 | 50 | 987.9 |
| 20260906152533 | 35 | 60 | 0.0 | 3.2 | 0.00 | 0.00 | 0.00 | 49 | 987.8 |
| 20260906152033 | 33 | 24 | 1.6 | 8.0 | 0.00 | 0.00 | 0.00 | 52 | 988.0 |
| 20260906151528 | 32 | 300 | 1.6 | 4.8 | 0.00 | 0.00 | 0.00 | 53 | 987.8 |
| 20260906151025 | 33 | 22 | 0.0 | 3.2 | 0.00 | 0.00 | 0.00 | 52 | 987.6 |
| 20260906150519 | 33 | 144 | 1.6 | 4.8 | 0.00 | 0.00 | 0.00 | 51 | 987.7 |
| 20260906150015 | 33 | 96 | 4.8 | 6.4 | 0.00 | 0.00 | 0.00 | 52 | 987.7 |
| 20260906145513 | 32 | 309 | 0.0 | 1.6 | 0.00 | 0.00 | 0.00 | 60 | 987.6 |
| 20260906145008 | 31 | 304 | 1.6 | 3.2 | 0.00 | 0.00 | 0.00 | 58 | 987.8 |
| 20260906144502 | 31 | 2 | 0.0 | 4.8 | 0.00 | 0.00 | 0.00 | 59 | 987.6 |
| 20260906143952 | 31 | 340 | 0.0 | 3.2 | 0.00 | 0.00 | 0.00 | 59 | 987.9 |
| 20260906143447 | 32 | 89 | 0.0 | 4.8 | 0.00 | 0.00 | 0.00 | 57 | 987.7 |
| 20260906142944 | 32 | 292 | 0.0 | 4.8 | 0.00 | 0.00 | 0.00 | 58 | 987.8 |
| 20260906142442 | 31 | 212 | 0.0 | 3.2 | 0.00 | 0.00 | 0.00 | 60 | 987.8 |
| 20260906141938 | 31 | 255 | 0.0 | 3.2 | 0.00 | 0.00 | 0.00 | 59 | 987.9 |
| 20260906141431 | 31 | 55 | 0.0 | 1.6 | 0.00 | 0.00 | 0.00 | 62 | 987.7 |
| 20260906140926 | 31 | 62 | 3.2 | 4.8 | 0.00 | 0.00 | 0.00 | 61 | 987.8 |
| 20260906140421 | 30 | 336 | 0.0 | 3.2 | 0.00 | 0.00 | 0.00 | 62 | 988.0 |
| 20260906135918 | 29 | 49 | 0.0 | 4.8 | 0.00 | 0.00 | 0.00 | 67 | 987.6 |
| 20260906135412 | 28 | 15 | 0.0 | 4.8 | 0.00 | 0.00 | 0.00 | 68 | 987.7 |
| 20260906134908 | 28 | 101 | 3.2 | 4.8 | 0.00 | 0.00 | 0.00 | 70 | 987.6 |
| 20260906134403 | 27 | 71 | 3.2 | 4.8 | 0.00 | 0.00 | 0.00 | 73 | 987.7 |
| 20260906133858 | 27 | 87 | 3.2 | 4.8 | 0.00 | 0.00 | 0.00 | 74 | 987.8 |
| 20260906133354 | 27 | 106 | 1.6 | 4.8 | 0.00 | 0.00 | 0.00 | 77 | 987.6 |
| 20260906132849 | 27 | 106 | 1.6 | 3.2 | 0.00 | 0.00 | 0.00 | 78 | 987.7 |
| 20260906132344 | 26 | 214 | 0.0 | 3.2 | 0.00 | 0.00 | 0.00 | 79 | 987.5 |
| 20260906131840 | 26 | 121 | 1.6 | 4.8 | 0.00 | 0.00 | 0.00 | 81 | 987.6 |
| 20260906131335 | 25 | 137 | 1.6 | 3.2 | 0.00 | 0.00 | 0.00 | 82 | 987.8 |
| 20260906130831 | 25 | 343 | 0.0 | 3.2 | 0.00 | 0.00 | 0.00 | 84 | 987.6 |
| 20260906130330 | 24 | 11 | 0.0 | 3.2 | 0.00 | 0.00 | 0.00 | 85 | 987.6 |
| 20260906125829 | 23 | 335 | 0.0 | 1.6 | 0.00 | 0.00 | 0.00 | 86 | 987.5 |
| 20260906125327 | 23 | 284 | 0.0 | 3.2 | 0.00 | 0.00 | 0.00 | 88 | 987.6 |
| 20260906124822 | 23 | 29 | 0.0 | 3.2 | 0.00 | 0.00 | 0.00 | 88 | 987.2 |
| 20260906124318 | 23 | 67 | 1.6 | 3.2 | 0.00 | 0.00 | 0.00 | 89 | 987.3 |
| 20260906123816 | 23 | 66 | 0.0 | 1.6 | 0.00 | 0.00 | 0.00 | 90 | 987.1 |
| 20260906123311 | 22 | 332 | 0.0 | 1.6 | 0.00 | 0.00 | 0.00 | 91 | 987.2 |
| 20260906122811 | 22 | 80 | 0.0 | 3.2 | 0.00 | 0.00 | 0.00 | 92 | 987.1 |
| 20260906122301 | 22 | 101 | 0.0 | 3.2 | 0.00 | 0.00 | 0.00 | 93 | 987.0 |
| 20260906121757 | 22 | 247 | 0.0 | 3.2 | 0.00 | 0.00 | 0.00 | 93 | 987.1 |
| 20260906121248 | 22 | 101 | 0.0 | 1.6 | 0.00 | 0.00 | 0.00 | 93 | 987.0 |
| 20260906120743 | 22 | 187 | 0.0 | 3.2 | 0.00 | 0.00 | 0.00 | 93 | 986.8 |
| 20260906120240 | 21 | 217 | 1.6 | 3.2 | 0.00 | 0.00 | 0.00 | 94 | 986.9 |
| 20260906115735 | 21 | 66 | 0.0 | 0.0 | 0.00 | 0.00 | 0.00 | 94 | 986.7 |
| 20260906115230 | 21 | 113 | 0.0 | 1.6 | 0.00 | 0.00 | 0.00 | 94 | 986.6 |
| 20260906114729 | 21 | 117 | 0.0 | 1.6 | 0.00 | 0.00 | 0.00 | 93 | 986.6 |
| 20260906114224 | 21 | 135 | 0.0 | 1.6 | 0.00 | 0.00 | 0.00 | 93 | 986.7 |
| 20260906113720 | 21 | 89 | 0.0 | 1.6 | 0.00 | 0.00 | 0.00 | 93 | 986.6 |
| 20260906113218 | 21 | 124 | 0.0 | 3.2 | 0.00 | 0.00 | 0.00 | 93 | 986.8 |
| 20260906112713 | 22 | 89 | 0.0 | 3.2 | 0.00 | 0.00 | 0.00 | 93 | 986.7 |
| 20260906112210 | 22 | 309 | 0.0 | 3.2 | 0.00 | 0.00 | 0.00 | 93 | 986.5 |
| 20260906111709 | 22 | 333 | 0.0 | 3.2 | 0.00 | 0.00 | 0.00 | 93 | 986.5 |
| 20260906111203 | 22 | 68 | 1.6 | 3.2 | 0.00 | 0.00 | 0.00 | 92 | 986.4 |
| 20260906110658 | 22 | 230 | 0.0 | 1.6 | 0.00 | 0.00 | 0.00 | 92 | 986.6 |
| 20260906110154 | 22 | 89 | 0.0 | 1.6 | 0.00 | 0.00 | 0.00 | 92 | 986.4 |
| 20260906105647 | 22 | 66 | 0.0 | 1.6 | 0.00 | 0.00 | 0.00 | 92 | 986.4 |
| 20260906105144 | 22 | 230 | 0.0 | 1.6 | 0.00 | 0.00 | 0.00 | 92 | 986.2 |
| 20260906104643 | 22 | 235 | 0.0 | 1.6 | 0.00 | 0.00 | 0.00 | 92 | 986.4 |
| 20260906104142 | 22 | 358 | 1.6 | 3.2 | 0.00 | 0.00 | 0.00 | 92 | 986.5 |
| 20260906103640 | 22 | 63 | 0.0 | 3.2 | 0.00 | 0.00 | 0.00 | 92 | 986.5 |
| 20260906103136 | 22 | 342 | 1.6 | 3.2 | 0.00 | 0.00 | 0.00 | 92 | 986.4 |
| 20260906102631 | 22 | 24 | 3.2 | 3.2 | 0.00 | 0.00 | 0.00 | 92 | 986.4 |
| 20260906102125 | 22 | 89 | 0.0 | 1.6 | 0.00 | 0.00 | 0.00 | 92 | 986.4 |
| 20260906101620 | 22 | 66 | 0.0 | 1.6 | 0.00 | 0.00 | 0.00 | 92 | 986.4 |
| 20260906101114 | 22 | 91 | 0.0 | 1.6 | 0.00 | 0.00 | 0.00 | 92 | 986.3 |
| 20260906100610 | 22 | 50 | 0.0 | 0.0 | 0.00 | 0.00 | 0.00 | 92 | 986.1 |
| 20260906100110 | 22 | 44 | 0.0 | 3.2 | 0.00 | 0.00 | 0.00 | 92 | 986.4 |
| 20260906095610 | 22 | 310 | 0.0 | 3.2 | 0.00 | 0.00 | 0.00 | 92 | 986.3 |
| 20260906095106 | 22 | 54 | 0.0 | 1.6 | 0.00 | 0.00 | 0.00 | 91 | 986.3 |
| 20260906094605 | 22 | 60 | 0.0 | 1.6 | 0.00 | 0.00 | 0.00 | 91 | 986.4 |
| 20260906094101 | 22 | 89 | 0.0 | 0.0 | 0.00 | 0.00 | 0.00 | 91 | 986.3 |
| 20260906093556 | 22 | 111 | 0.0 | 1.6 | 0.00 | 0.00 | 0.00 | 90 | 986.2 |
| 20260906093051 | 22 | 91 | 0.0 | 3.2 | 0.00 | 0.00 | 0.00 | 90 | 986.2 |
| 20260906092546 | 22 | 89 | 0.0 | 0.0 | 0.00 | 0.00 | 0.00 | 90 | 986.2 |
| 20260906092041 | 22 | 269 | 0.0 | 0.0 | 0.00 | 0.00 | 0.00 | 90 | 986.2 |
| 20260906091537 | 22 | 333 | 0.0 | 1.6 | 0.00 | 0.00 | 0.00 | 90 | 986.1 |
| 20260906091034 | 22 | 283 | 0.0 | 1.6 | 0.00 | 0.00 | 0.00 | 90 | 986.3 |
| 20260906090533 | 22 | 77 | 0.0 | 1.6 | 0.00 | 0.00 | 0.00 | 89 | 986.2 |
| 20260906090028 | 22 | 38 | 0.0 | 0.0 | 0.00 | 0.00 | 0.00 | 89 | 986.2 |
| 20260906085527 | 22 | 44 | 0.0 | 3.2 | 0.00 | 0.00 | 0.00 | 89 | 986.2 |
| 20260906085027 | 22 | 84 | 0.0 | 1.6 | 0.00 | 0.00 | 0.00 | 89 | 986.0 |
| 20260906084522 | 23 | 87 | 0.0 | 1.6 | 0.00 | 0.00 | 0.00 | 88 | 985.9 |
| 20260906084020 | 23 | 37 | 0.0 | 1.6 | 0.00 | 0.00 | 0.00 | 88 | 986.2 |
| 20260906083516 | 23 | 89 | 0.0 | 1.6 | 0.00 | 0.00 | 0.00 | 88 | 986.1 |
| 20260906083016 | 23 | 269 | 0.0 | 1.6 | 0.00 | 0.00 | 0.00 | 88 | 986.1 |
| 20260906082511 | 23 | 322 | 0.0 | 3.2 | 0.00 | 0.00 | 0.00 | 88 | 986.2 |
| 20260906082007 | 23 | 62 | 0.0 | 1.6 | 0.00 | 0.00 | 0.00 | 88 | 986.0 |
| 20260906081502 | 23 | 50 | 0.0 | 0.0 | 0.00 | 0.00 | 0.00 | 88 | 985.9 |
| 20260906080958 | 23 | 50 | 0.0 | 0.0 | 0.00 | 0.00 | 0.00 | 88 | 986.0 |
| 20260906080454 | 23 | 89 | 0.0 | 1.6 | 0.00 | 0.00 | 0.00 | 87 | 986.0 |
| 20260906075954 | 23 | 69 | 0.0 | 1.6 | 0.00 | 0.00 | 0.00 | 87 | 986.1 |
| 20260906075449 | 23 | 99 | 0.0 | 1.6 | 0.00 | 0.00 | 0.00 | 87 | 985.8 |
| 20260906074944 | 23 | 242 | 0.0 | 0.0 | 0.00 | 0.00 | 0.00 | 86 | 985.9 |
| 20260906074439 | 23 | 89 | 0.0 | 0.0 | 0.00 | 0.00 | 0.00 | 86 | 986.0 |
| 20260906073937 | 23 | 89 | 0.0 | 1.6 | 0.00 | 0.00 | 0.00 | 86 | 986.0 |
| 20260906073433 | 23 | 62 | 0.0 | 1.6 | 0.00 | 0.00 | 0.00 | 86 | 985.8 |
| 20260906072929 | 23 | 75 | 0.0 | 0.0 | 0.00 | 0.00 | 0.00 | 85 | 986.2 |
| 20260906072424 | 23 | 89 | 1.6 | 1.6 | 0.00 | 0.00 | 0.00 | 85 | 986.1 |
| 20260906071920 | 23 | 113 | 0.0 | 0.0 | 0.00 | 0.00 | 0.00 | 85 | 986.0 |
| 20260906071416 | 23 | 104 | 0.0 | 0.0 | 0.00 | 0.00 | 0.00 | 84 | 986.1 |
| 20260906070912 | 24 | 104 | 0.0 | 0.0 | 0.00 | 0.00 | 0.00 | 84 | 986.2 |
| 20260906070407 | 24 | 104 | 0.0 | 1.6 | 0.00 | 0.00 | 0.00 | 83 | 986.1 |
| 20260906065903 | 24 | 326 | 0.0 | 1.6 | 0.00 | 0.00 | 0.00 | 83 | 986.2 |
| 20260906065356 | 24 | 322 | 0.0 | 0.0 | 0.00 | 0.00 | 0.00 | 83 | 986.3 |
| 20260906064852 | 24 | 44 | 0.0 | 1.6 | 0.00 | 0.00 | 0.00 | 83 | 986.2 |
| 20260906064348 | 24 | 242 | 0.0 | 0.0 | 0.00 | 0.00 | 0.00 | 82 | 986.3 |
| 20260906063843 | 24 | 224 | 0.0 | 1.6 | 0.00 | 0.00 | 0.00 | 82 | 986.5 |
| 20260906063338 | 24 | 309 | 0.0 | 1.6 | 0.00 | 0.00 | 0.00 | 81 | 986.4 |
| 20260906062833 | 25 | 242 | 0.0 | 1.6 | 0.00 | 0.00 | 0.00 | 81 | 986.2 |
| 20260906062332 | 25 | 141 | 0.0 | 1.6 | 0.00 | 0.00 | 0.00 | 80 | 986.3 |
| 20260906061828 | 25 | 322 | 0.0 | 1.6 | 0.00 | 0.00 | 0.00 | 80 | 986.5 |
| 20260906061324 | 25 | 62 | 0.0 | 0.0 | 0.00 | 0.00 | 0.00 | 79 | 986.5 |
| 20260906060819 | 25 | 62 | 0.0 | 1.6 | 0.00 | 0.00 | 0.00 | 78 | 986.3 |
| 20260906060317 | 25 | 246 | 0.0 | 1.6 | 0.00 | 0.00 | 0.00 | 77 | 986.2 |
| 20260906055812 | 25 | 224 | 0.0 | 0.0 | 0.00 | 0.00 | 0.00 | 77 | 986.3 |
| 20260906055308 | 25 | 281 | 0.0 | 1.6 | 0.00 | 0.00 | 0.00 | 77 | 986.3 |
| 20260906054803 | 25 | 202 | 0.0 | 1.6 | 0.00 | 0.00 | 0.00 | 76 | 986.1 |
| 20260906054258 | 26 | 101 | 0.0 | 1.6 | 0.00 | 0.00 | 0.00 | 74 | 986.2 |
| 20260906053754 | 26 | 238 | 0.0 | 4.8 | 0.00 | 0.00 | 0.00 | 73 | 986.3 |
| 20260906053250 | 26 | 297 | 0.0 | 0.0 | 0.00 | 0.00 | 0.00 | 70 | 986.0 |
| 20260906052744 | 27 | 297 | 0.0 | 1.6 | 0.00 | 0.00 | 0.00 | 66 | 986.2 |
| 20260906052241 | 27 | 25 | 0.0 | 0.0 | 0.00 | 0.00 | 0.00 | 66 | 986.1 |
| 20260906051738 | 27 | 25 | 0.0 | 0.0 | 0.00 | 0.00 | 0.00 | 66 | 986.0 |
| 20260906051237 | 27 | 25 | 0.0 | 0.0 | 0.00 | 0.00 | 0.00 | 66 | 986.0 |
| 20260906050732 | 27 | 25 | 0.0 | 1.6 | 0.00 | 0.00 | 0.00 | 65 | 986.1 |
| 20260906050227 | 27 | 37 | 0.0 | 0.0 | 0.00 | 0.00 | 0.00 | 65 | 986.0 |
| 20260906045726 | 27 | 15 | 0.0 | 3.2 | 0.00 | 0.00 | 0.00 | 65 | 986.1 |
| 20260906045216 | 27 | 38 | 0.0 | 1.6 | 0.00 | 0.00 | 0.00 | 66 | 986.2 |
| 20260906044711 | 27 | 333 | 0.0 | 0.0 | 0.00 | 0.00 | 0.00 | 65 | 986.1 |
| 20260906044206 | 27 | 55 | 0.0 | 3.2 | 0.00 | 0.00 | 0.00 | 64 | 985.9 |
| 20260906043703 | 27 | 343 | 0.0 | 1.6 | 0.00 | 0.00 | 0.00 | 66 | 986.0 |
| 20260906043158 | 27 | 37 | 0.0 | 0.0 | 0.00 | 0.00 | 0.00 | 64 | 986.0 |
| 20260906042657 | 28 | 345 | 0.0 | 3.2 | 0.00 | 0.00 | 0.00 | 64 | 986.0 |
| 20260906042151 | 27 | 4 | 0.0 | 3.2 | 0.00 | 0.00 | 0.00 | 65 | 986.1 |
| 20260906041647 | 28 | 39 | 0.0 | 3.2 | 0.00 | 0.00 | 0.00 | 65 | 986.3 |
| 20260906041142 | 28 | 15 | 3.2 | 3.2 | 0.00 | 0.00 | 0.00 | 64 | 986.2 |
| 20260906040637 | 28 | 356 | 1.6 | 3.2 | 0.00 | 0.00 | 0.00 | 65 | 986.0 |
| 20260906040133 | 27 | 11 | 0.0 | 3.2 | 0.00 | 0.00 | 0.00 | 66 | 986.0 |
| 20260906035628 | 28 | 25 | 0.0 | 3.2 | 0.00 | 0.00 | 0.00 | 66 | 986.0 |
| 20260906035123 | 28 | 322 | 0.0 | 1.6 | 0.00 | 0.00 | 0.00 | 65 | 986.1 |
| 20260906034618 | 28 | 70 | 1.6 | 3.2 | 0.00 | 0.00 | 0.00 | 64 | 986.0 |
| 20260906034113 | 28 | 44 | 0.0 | 3.2 | 0.00 | 0.00 | 0.00 | 64 | 985.9 |
| 20260906033608 | 28 | 22 | 0.0 | 1.6 | 0.00 | 0.00 | 0.00 | 65 | 986.0 |
| 20260906033102 | 28 | 13 | 0.0 | 0.0 | 0.00 | 0.00 | 0.00 | 64 | 985.8 |
| 20260906032559 | 28 | 304 | 0.0 | 3.2 | 0.00 | 0.00 | 0.00 | 64 | 985.7 |
| 20260906032054 | 28 | 329 | 0.0 | 3.2 | 0.00 | 0.00 | 0.00 | 64 | 985.8 |
| 20260906031549 | 28 | 45 | 0.0 | 3.2 | 0.00 | 0.00 | 0.00 | 63 | 985.8 |
| 20260906031045 | 28 | 3 | 1.6 | 3.2 | 0.00 | 0.00 | 0.00 | 63 | 986.0 |
| 20260906030544 | 28 | 343 | 0.0 | 3.2 | 0.00 | 0.00 | 0.00 | 63 | 985.8 |
| 20260906030043 | 28 | 350 | 1.6 | 3.2 | 0.00 | 0.00 | 0.00 | 62 | 986.0 |
| 20260906025538 | 29 | 22 | 1.6 | 3.2 | 0.00 | 0.00 | 0.00 | 61 | 985.9 |
| 20260906025036 | 29 | 102 | 3.2 | 4.8 | 0.00 | 0.00 | 0.00 | 60 | 985.6 |
| 20260906024531 | 30 | 98 | 1.6 | 3.2 | 0.00 | 0.00 | 0.00 | 59 | 985.8 |
| 20260906024025 | 30 | 76 | 1.6 | 4.8 | 0.00 | 0.00 | 0.00 | 59 | 985.7 |
| 20260906023522 | 30 | 89 | 1.6 | 6.4 | 0.00 | 0.00 | 0.00 | 59 | 985.4 |
| 20260906023016 | 30 | 83 | 1.6 | 4.8 | 0.00 | 0.00 | 0.00 | 58 | 985.6 |
| 20260906022511 | 30 | 82 | 1.6 | 3.2 | 0.00 | 0.00 | 0.00 | 58 | 985.6 |
| 20260906022007 | 30 | 304 | 0.0 | 4.8 | 0.00 | 0.00 | 0.00 | 58 | 985.3 |
| 20260906021503 | 30 | 87 | 1.6 | 3.2 | 0.00 | 0.00 | 0.00 | 57 | 985.3 |
| 20260906020957 | 30 | 87 | 1.6 | 3.2 | 0.00 | 0.00 | 0.00 | 56 | 985.3 |
| 20260906020450 | 30 | 0 | 0.0 | 8.0 | 0.00 | 0.00 | 0.00 | 56 | 985.2 |
| 20260906015949 | 31 | 350 | 0.0 | 4.8 | 0.00 | 0.00 | 0.00 | 55 | 985.0 |
| 20260906015444 | 31 | 58 | 4.8 | 4.8 | 0.00 | 0.00 | 0.00 | 54 | 985.1 |
| 20260906014944 | 31 | 49 | 3.2 | 4.8 | 0.00 | 0.00 | 0.00 | 54 | 985.0 |
| 20260906014438 | 31 | 56 | 3.2 | 4.8 | 0.00 | 0.00 | 0.00 | 53 | 984.9 |
| 20260906013934 | 31 | 49 | 3.2 | 4.8 | 0.00 | 0.00 | 0.00 | 53 | 984.8 |
| 20260906013430 | 31 | 29 | 1.6 | 4.8 | 0.00 | 0.00 | 0.00 | 52 | 984.7 |
| 20260906012926 | 32 | 30 | 3.2 | 12.9 | 0.00 | 0.00 | 0.00 | 52 | 985.0 |
| 20260906012426 | 32 | 28 | 3.2 | 6.4 | 0.00 | 0.00 | 0.00 | 52 | 984.6 |
| 20260906011924 | 31 | 67 | 3.2 | 8.0 | 0.00 | 0.00 | 0.00 | 53 | 984.6 |
| 20260906011420 | 31 | 86 | 3.2 | 4.8 | 0.00 | 0.00 | 0.00 | 56 | 984.8 |
| 20260906010916 | 31 | 22 | 0.0 | 3.2 | 0.00 | 0.00 | 0.00 | 55 | 984.5 |
| 20260906010411 | 31 | 322 | 0.0 | 1.6 | 0.00 | 0.00 | 0.00 | 52 | 984.3 |
| 20260906005907 | 31 | 343 | 0.0 | 0.0 | 0.00 | 0.00 | 0.00 | 52 | 984.6 |
| 20260906005406 | 31 | 37 | 0.0 | 1.6 | 0.00 | 0.00 | 0.00 | 52 | 984.4 |
| 20260906004904 | 32 | 345 | 0.0 | 0.0 | 0.00 | 0.00 | 0.00 | 51 | 984.7 |
| 20260906004359 | 32 | 345 | 0.0 | 0.0 | 0.00 | 0.00 | 0.00 | 50 | 984.5 |
| 20260906003855 | 32 | 345 | 0.0 | 0.0 | 0.00 | 0.00 | 0.00 | 49 | 984.5 |
| 20260906003350 | 33 | 7 | 1.6 | 1.6 | 0.00 | 0.00 | 0.00 | 47 | 984.6 |
| 20260906002846 | 33 | 350 | 0.0 | 3.2 | 0.00 | 0.00 | 0.00 | 47 | 984.6 |
| 20260906002344 | 33 | 5 | 1.6 | 6.4 | 0.00 | 0.00 | 0.00 | 46 | 984.5 |
| 20260906001840 | 33 | 350 | 3.2 | 4.8 | 0.00 | 0.00 | 0.00 | 48 | 984.6 |
| 20260906001336 | 34 | 350 | 0.0 | 1.6 | 0.00 | 0.00 | 0.00 | 44 | 984.2 |
| 20260906000831 | 34 | 297 | 0.0 | 1.6 | 0.00 | 0.00 | 0.00 | 41 | 984.3 |
| 20260906000326 | 35 | 49 | 0.0 | 0.0 | 0.00 | 0.00 | 0.00 | 40 | 984.6 |
| 20260905235825 | 35 | 343 | 0.0 | 1.6 | 0.00 | 0.00 | 0.00 | 40 | 984.6 |
| 20260905235320 | 35 | 104 | 0.0 | 3.2 | 0.00 | 0.00 | 0.00 | 39 | 984.4 |
| 20260905234816 | 35 | 79 | 0.0 | 1.6 | 0.00 | 0.00 | 0.00 | 38 | 984.5 |
| 20260905234310 | 35 | 116 | 1.6 | 4.8 | 0.00 | 0.00 | 0.00 | 37 | 984.5 |
| 20260905233800 | 36 | 300 | 0.0 | 4.8 | 0.00 | 0.00 | 0.00 | 38 | 984.2 |
| 20260905233259 | 36 | 38 | 0.0 | 3.2 | 0.00 | 0.00 | 0.00 | 37 | 984.2 |
| 20260905232758 | 36 | 88 | 0.0 | 4.8 | 0.00 | 0.00 | 0.00 | 37 | 984.5 |
| 20260905232255 | 36 | 52 | 0.0 | 8.0 | 0.00 | 0.00 | 0.00 | 36 | 984.2 |
| 20260905231745 | 36 | 355 | 1.6 | 6.4 | 0.00 | 0.00 | 0.00 | 37 | 984.3 |
| 20260905231240 | 36 | 99 | 4.8 | 8.0 | 0.00 | 0.00 | 0.00 | 36 | 984.2 |
| 20260905230736 | 37 | 89 | 1.6 | 8.0 | 0.00 | 0.00 | 0.00 | 35 | 984.4 |
| 20260905230233 | 37 | 139 | 0.0 | 8.0 | 0.00 | 0.00 | 0.00 | 35 | 984.4 |
| 20260905225728 | 37 | 131 | 0.0 | 4.8 | 0.00 | 0.00 | 0.00 | 35 | 984.1 |
| 20260905225223 | 37 | 101 | 0.0 | 9.7 | 0.00 | 0.00 | 0.00 | 35 | 984.3 |
| 20260905224722 | 38 | 117 | 3.2 | 6.4 | 0.00 | 0.00 | 0.00 | 35 | 984.1 |
| 20260905224218 | 38 | 100 | 6.4 | 9.7 | 0.00 | 0.00 | 0.00 | 35 | 984.2 |
| 20260905223714 | 39 | 297 | 0.0 | 3.2 | 0.00 | 0.00 | 0.00 | 35 | 984.1 |
| 20260905223210 | 40 | 217 | 0.0 | 0.0 | 0.00 | 0.00 | 0.00 | 33 | 984.2 |
| 20260905222706 | 38 | 336 | 0.0 | 1.6 | 0.00 | 0.00 | 0.00 | 34 | 984.2 |
| 20260905222205 | 38 | 346 | 3.2 | 4.8 | 0.00 | 0.00 | 0.00 | 34 | 984.4 |
| 20260905221701 | 38 | 5 | 3.2 | 11.3 | 0.00 | 0.00 | 0.00 | 35 | 984.2 |
| 20260905221157 | 39 | 203 | 4.8 | 4.8 | 0.00 | 0.00 | 0.00 | 34 | 984.3 |
| 20260905220653 | 39 | 0 | 1.6 | 3.2 | 0.00 | 0.00 | 0.00 | 34 | 984.3 |
| 20260905220149 | 38 | 235 | 0.0 | 4.8 | 0.00 | 0.00 | 0.00 | 36 | 984.5 |
| 20260905215643 | 38 | 99 | 8.0 | 11.3 | 0.00 | 0.00 | 0.00 | 36 | 984.4 |
| 20260905215138 | 38 | 112 | 3.2 | 6.4 | 0.00 | 0.00 | 0.00 | 36 | 984.5 |
| 20260905214634 | 38 | 347 | 3.2 | 8.0 | 0.00 | 0.00 | 0.00 | 38 | 984.5 |
| 20260905214129 | 38 | 102 | 4.8 | 6.4 | 0.00 | 0.00 | 0.00 | 36 | 984.3 |
| 20260905213625 | 38 | 135 | 1.6 | 3.2 | 0.00 | 0.00 | 0.00 | 36 | 984.5 |
| 20260905213120 | 38 | 126 | 3.2 | 6.4 | 0.00 | 0.00 | 0.00 | 36 | 984.5 |
| 20260905212615 | 38 | 85 | 6.4 | 9.7 | 0.00 | 0.00 | 0.00 | 35 | 984.6 |
| 20260905212114 | 38 | 135 | 0.0 | 4.8 | 0.00 | 0.00 | 0.00 | 36 | 984.5 |
| 20260905211610 | 38 | 130 | 0.0 | 8.0 | 0.00 | 0.00 | 0.00 | 35 | 984.7 |
| 20260905211105 | 38 | 190 | 0.0 | 6.4 | 0.00 | 0.00 | 0.00 | 36 | 984.8 |
| 20260905210601 | 37 | 110 | 8.0 | 14.5 | 0.00 | 0.00 | 0.00 | 37 | 984.9 |
| 20260905210056 | 38 | 86 | 6.4 | 11.3 | 0.00 | 0.00 | 0.00 | 36 | 985.0 |
| 20260905205555 | 38 | 97 | 4.8 | 6.4 | 0.00 | 0.00 | 0.00 | 36 | 985.1 |
| 20260905205055 | 38 | 139 | 3.2 | 4.8 | 0.00 | 0.00 | 0.00 | 36 | 985.1 |
| 20260905204549 | 38 | 108 | 0.0 | 4.8 | 0.00 | 0.00 | 0.00 | 37 | 985.2 |
| 20260905204045 | 38 | 89 | 4.8 | 9.7 | 0.00 | 0.00 | 0.00 | 37 | 985.3 |
| 20260905203544 | 37 | 339 | 4.8 | 8.0 | 0.00 | 0.00 | 0.00 | 38 | 985.2 |
| 20260905203040 | 37 | 300 | 3.2 | 9.7 | 0.00 | 0.00 | 0.00 | 40 | 985.6 |
| 20260905202535 | 37 | 65 | 6.4 | 9.7 | 0.00 | 0.00 | 0.00 | 40 | 985.6 |
| 20260905202031 | 37 | 1 | 4.8 | 8.0 | 0.00 | 0.00 | 0.00 | 39 | 985.4 |
| 20260905201526 | 37 | 29 | 8.0 | 14.5 | 0.00 | 0.00 | 0.00 | 39 | 985.6 |
| 20260905201025 | 38 | 105 | 4.8 | 12.9 | 0.00 | 0.00 | 0.00 | 38 | 985.9 |
| 20260905200521 | 38 | 95 | 9.7 | 12.9 | 0.00 | 0.00 | 0.00 | 39 | 985.8 |
| 20260905200020 | 37 | 340 | 1.6 | 8.0 | 0.00 | 0.00 | 0.00 | 39 | 985.9 |
| 20260905195514 | 38 | 299 | 4.8 | 11.3 | 0.00 | 0.00 | 0.00 | 38 | 986.1 |
| 20260905195009 | 38 | 52 | 3.2 | 8.0 | 0.00 | 0.00 | 0.00 | 40 | 986.0 |
| 20260905194504 | 38 | 102 | 3.2 | 4.8 | 0.00 | 0.00 | 0.00 | 38 | 986.0 |
| 20260905194004 | 38 | 145 | 0.0 | 8.0 | 0.00 | 0.00 | 0.00 | 40 | 986.2 |
| 20260905193458 | 38 | 125 | 3.2 | 8.0 | 0.00 | 0.00 | 0.00 | 40 | 986.2 |
| 20260905192953 | 38 | 213 | 1.6 | 4.8 | 0.00 | 0.00 | 0.00 | 40 | 986.1 |
| 20260905192449 | 37 | 92 | 0.0 | 3.2 | 0.00 | 0.00 | 0.00 | 43 | 986.5 |
| 20260905191945 | 35 | 128 | 1.6 | 8.0 | 0.00 | 0.00 | 0.00 | 45 | 986.4 |
| 20260905191443 | 35 | 215 | 0.0 | 3.2 | 0.00 | 0.00 | 0.00 | 45 | 986.4 |
| 20260905190937 | 35 | 353 | 1.6 | 4.8 | 0.00 | 0.00 | 0.00 | 45 | 986.7 |
| 20260905190435 | 35 | 358 | 1.6 | 4.8 | 0.00 | 0.00 | 0.00 | 45 | 986.6 |
| 20260905185934 | 36 | 320 | 3.2 | 6.4 | 0.00 | 0.00 | 0.00 | 45 | 986.8 |
| 20260905185429 | 36 | 10 | 4.8 | 8.0 | 0.00 | 0.00 | 0.00 | 42 | 986.8 |
| 20260905184928 | 37 | 295 | 3.2 | 8.0 | 0.00 | 0.00 | 0.00 | 42 | 986.8 |
| 20260905184423 | 37 | 318 | 8.0 | 12.9 | 0.00 | 0.00 | 0.00 | 41 | 986.9 |
| 20260905183922 | 36 | 288 | 3.2 | 9.7 | 0.00 | 0.00 | 0.00 | 45 | 987.0 |
| 20260905183416 | 36 | 348 | 4.8 | 6.4 | 0.00 | 0.00 | 0.00 | 43 | 986.9 |
| 20260905182911 | 36 | 307 | 0.0 | 6.4 | 0.00 | 0.00 | 0.00 | 43 | 987.1 |
| 20260905182410 | 36 | 295 | 3.2 | 4.8 | 0.00 | 0.00 | 0.00 | 46 | 987.2 |
| 20260905181907 | 35 | 331 | 4.8 | 8.0 | 0.00 | 0.00 | 0.00 | 46 | 987.2 |
| 20260905181407 | 35 | 348 | 1.6 | 9.7 | 0.00 | 0.00 | 0.00 | 45 | 987.3 |
| 20260905180905 | 36 | 330 | 4.8 | 9.7 | 0.00 | 0.00 | 0.00 | 44 | 987.3 |
| 20260905180401 | 37 | 352 | 1.6 | 4.8 | 0.00 | 0.00 | 0.00 | 43 | 987.4 |
| 20260905175856 | 36 | 240 | 6.4 | 8.0 | 0.00 | 0.00 | 0.00 | 43 | 987.6 |
| 20260905175355 | 36 | 326 | 1.6 | 8.0 | 0.00 | 0.00 | 0.00 | 43 | 987.6 |
| 20260905174850 | 36 | 26 | 1.6 | 9.7 | 0.00 | 0.00 | 0.00 | 45 | 987.6 |
| 20260905174346 | 36 | 24 | 6.4 | 8.0 | 0.00 | 0.00 | 0.00 | 44 | 987.8 |
| 20260905173842 | 36 | 68 | 4.8 | 6.4 | 0.00 | 0.00 | 0.00 | 45 | 987.7 |
| 20260905173337 | 35 | 41 | 3.2 | 4.8 | 0.00 | 0.00 | 0.00 | 48 | 987.8 |
| 20260905172832 | 35 | 355 | 3.2 | 11.3 | 0.00 | 0.00 | 0.00 | 46 | 987.9 |